[[{"header":{"parameterUnit":"m.s-1","parameterCategory":1,"la1":30.2991,"la2":30.254,"lo1":-89.0895,"lo2":-89.0444,"dy":0.0017,"dx":0.0017,"nx":28,"ny":28,"refTime":"2025-03-16T03:00:00:Z","depth":0,"parameterNumber":2,"parameterNumberName":"U-component_of_WINDS"},"data":[0,0,0,0,0,0,0,0,0,0,0,0,0,0,0,0,0,0,0,0,0,0,0,0,0,0,0,0,0,0,0,0,0,0,0,0,0,0,0,0,0,0,0,0,0,0,0,0,0,0,0,0,0,0,0,0,0,0,-1.2501,-1.2504,0,-1.2769,-1.2772,-1.2775,-1.2925,-1.2926,-1.2926,-1.2927,-1.3203,-1.321,-1.3217,0,0,0,0,0,0,0,0,0,0,0,0,0,-1.2121,-1.2127,-1.2501,-1.2504,-1.2508,-1.2769,-1.2772,-1.2776,-1.2925,-1.2926,-1.2927,-1.2927,-1.3201,-1.3209,-1.3217,0,0,0,0,0,0,0,0,0,0,0,0,0,-1.2327,-1.2129,-1.25,-1.2614,-1.2627,-1.2768,-1.2773,-1.2777,-1.2925,-1.2926,-1.2927,-1.2927,-1.3198,-1.3208,-1.3219,-1.3269,0,0,-1.325,-1.3255,0,0,0,0,0,0,0,0,-1.2315,-1.2341,-1.2594,-1.2606,-1.2621,-1.2815,-1.274,-1.2942,-1.2925,-1.2812,-1.2927,-1.2928,-1.3073,-1.3094,-1.3143,-1.3282,-1.3294,-1.3251,-1.3258,-1.3262,-1.3265,0,0,0,0,0,0,0,-1.2301,-1.233,-1.2607,-1.2597,-1.2614,-1.2652,-1.2682,-1.2779,-1.2936,-1.2822,-1.2833,-1.2863,-1.3081,-1.3133,-1.3151,-1.3298,-1.3251,-1.326,-1.3267,-1.3271,-1.3492,-1.3492,0,0,0,0,0,0,-1.2268,-1.2317,-1.2599,-1.2615,-1.2467,-1.2658,-1.2692,-1.2752,-1.2935,-1.2963,-1.2862,-1.2869,-1.3115,-1.3138,-1.3161,-1.3233,-1.3262,-1.3272,-1.3278,-1.3493,-1.3492,-1.3492,0,0,0,0,0,0,-1.2259,-1.2292,-1.2588,-1.247,-1.251,-1.2664,-1.273,-1.2757,-1.2808,-1.2965,-1.2994,-1.2886,-1.3116,-1.3146,-1.3241,-1.3244,-1.3276,-1.3286,-1.3493,-1.3492,-1.3492,-1.3375,0,0,0,0,0,0,-1.2248,-1.2288,-1.2308,-1.2469,-1.2516,-1.2662,-1.273,-1.2761,-1.2826,-1.2837,-1.2995,-1.3022,-1.3119,-1.3225,-1.3251,-1.3259,-1.3294,-1.3493,-1.3493,-1.3492,-1.3379,-1.337,-1.3363,0,0,0,0,0,-1.2234,-1.2264,-1.2308,-1.2341,-1.2544,-1.2662,-1.2689,-1.2799,-1.2825,-1.2847,-1.2948,-1.3017,-1.3239,-1.3233,-1.3264,-1.3275,-1.3494,-1.3493,-1.3492,-1.3383,-1.3372,-1.3363,0,0,0,0,0,0,-1.21,-1.2288,-1.2338,-1.2422,-1.2525,-1.2687,-1.2718,-1.2784,-1.2883,-1.289,-1.3023,-1.3057,-1.3139,-1.3217,-1.3207,-1.3334,-1.3374,-1.3379,-1.328,-1.3271,-1.3263,-1.3243,-1.3303,0,0,0,0,0,-1.208,-1.216,-1.232,-1.2378,-1.2427,-1.2563,-1.2619,-1.2695,-1.2807,-1.2852,-1.296,-1.3067,-1.3162,-1.3221,-1.3316,-1.3391,-1.3428,-1.3414,-1.3406,-1.3398,-1.3402,-1.3448,-1.3444,-1.3489,-1.3489,-1.3489,0,0,-1.2041,-1.2153,-1.2195,-1.2354,-1.2443,-1.2523,-1.2599,-1.2681,-1.2742,-1.2865,-1.2961,-1.3043,-1.3172,-1.3257,-1.33,-1.3324,-1.3397,-1.3397,-1.339,-1.3398,-1.3447,-1.3442,-1.3438,-1.3489,-1.3489,-1.3489,0,0,-1.2009,-1.2101,-1.2161,-1.2248,-1.2381,-1.2472,-1.2485,-1.2639,-1.2698,-1.2796,-1.289,-1.2965,-1.3124,-1.3212,-1.3278,-1.3279,-1.3347,-1.3307,-1.3264,-1.3308,-1.3304,-1.3302,-1.3303,-1.3302,-1.3309,-1.3309,-1.3309,0,-1.1943,-1.2067,-1.2183,-1.2259,-1.2327,-1.2441,-1.2502,-1.2582,-1.2739,-1.2784,-1.2808,-1.3011,-1.3105,-1.3213,-1.3213,-1.3262,-1.3283,-1.3289,-1.3295,-1.3294,-1.3294,-1.3296,-1.3296,-1.3303,-1.3304,-1.3305,-1.3305,0,-1.1979,-1.2064,-1.2096,-1.2244,-1.2316,-1.2384,-1.2511,-1.2569,-1.2638,-1.2726,-1.2825,-1.2942,-1.3064,-1.3095,-1.3164,-1.3213,-1.3224,-1.327,-1.3313,-1.3281,-1.3286,-1.3288,-1.3295,-1.3297,-1.3299,-1.33,0,0,-1.1872,-1.2083,-1.2093,-1.2162,-1.2318,-1.2386,-1.2459,-1.2577,-1.2625,-1.273,-1.2796,-1.2928,-1.2972,-1.3046,-1.3126,-1.3164,-1.3158,-1.3206,-1.3211,-1.3194,-1.322,-1.3184,-1.3184,-1.3204,-1.3204,-1.3205,-1.321,0,-1.1863,-1.2,-1.2107,-1.2204,-1.2284,-1.2393,-1.2458,-1.256,-1.2644,-1.2725,-1.2819,-1.291,-1.2961,-1.3006,-1.3049,-1.315,-1.3165,-1.3151,-1.3267,-1.327,-1.3232,-1.3186,-1.3149,-1.3148,-1.3212,-1.3213,-1.3213,0,-1.1872,-1.1972,-1.2076,-1.2224,-1.2262,-1.2317,-1.2434,-1.251,-1.2629,-1.2687,-1.2769,-1.2852,-1.2936,-1.297,-1.3088,-1.3075,-1.3129,-1.3186,-1.3189,-1.3205,-1.324,-1.3201,-1.315,-1.315,-1.3217,-1.3217,-1.3216,0,-1.1784,-1.1945,-1.2028,-1.2084,-1.2258,-1.2294,-1.2369,-1.2488,-1.2552,-1.2655,-1.2698,-1.2809,-1.2869,-1.2954,-1.3065,-1.3079,-1.3171,-1.3215,-1.3223,-1.322,-1.3238,-1.3235,-1.3195,-1.3271,-1.3271,-1.3271,-1.3271,0,-1.1764,-1.1823,-1.1991,-1.2042,-1.2113,-1.2235,-1.2302,-1.2386,-1.2491,-1.2561,-1.2663,-1.2727,-1.2869,-1.2951,-1.3038,-1.3123,-1.3149,-1.32,-1.3222,-1.3191,-1.3184,-1.3229,-1.3232,-1.3271,-1.3271,-1.3271,-1.3271,0,-1.1677,-1.1792,-1.189,-1.2046,-1.2087,-1.2132,-1.2267,-1.2321,-1.241,-1.2498,-1.2526,-1.2666,-1.2768,-1.2886,-1.3026,-1.3085,-1.3163,-1.3196,-1.3122,-1.3135,-1.3137,-1.3136,-1.3125,-1.313,-1.32,-1.3199,-1.3198,0,-1.1657,-1.1706,-1.1867,-1.192,-1.1992,-1.2077,-1.2143,-1.2265,-1.233,-1.2469,-1.2507,-1.2615,-1.2709,-1.2866,-1.2981,-1.3089,-1.3126,-1.3114,-1.3143,-1.311,-1.3127,-1.3123,-1.3129,-1.3107,-1.3105,-1.3104,-1.3103,0,-1.1609,-1.1664,-1.1754,-1.1864,-1.194,-1.2033,-1.213,-1.2168,-1.231,-1.2378,-1.2482,-1.2554,-1.2697,-1.2804,-1.2927,-1.3005,-1.3078,-1.3093,-1.3101,-1.307,-1.3026,-1.305,-1.3102,-1.3093,-1.3094,-1.3095,-1.3096,-1.3096,-1.1557,-1.1605,-1.1726,-1.1823,-1.1909,-1.1997,-1.2056,-1.2153,-1.2241,-1.2367,-1.2433,-1.2536,-1.2655,-1.2827,-1.2902,-1.2985,-1.301,-1.3021,-1.3025,-1.3026,-1.3017,-1.3011,-1.3008,-1.3008,-1.3009,-1.3009,-1.301,0,-1.1515,-1.1598,-1.1686,-1.1819,-1.1895,-1.1956,-1.2067,-1.2128,-1.2217,-1.232,-1.241,-1.253,-1.2634,-1.2757,-1.287,-1.2913,-1.2949,-1.2938,-1.2937,-1.2954,-1.2987,-1.297,-1.2907,-1.2907,-1.2907,-1.2907,-1.2907,-1.2907,-1.1502,-1.1587,-1.1656,-1.1785,-1.1868,-1.1969,-1.2027,-1.2109,-1.2193,-1.2322,-1.2409,-1.2488,-1.26,-1.2722,-1.282,-1.2854,-1.2891,-1.287,-1.2914,-1.2943,-1.2951,-1.296,-1.2944,-1.2877,-1.2877,-1.2874,-1.2874,-1.2874]},{"header":{"parameterUnit":"m.s-1","parameterCategory":1,"la1":30.2991,"la2":30.254,"lo1":-89.0895,"lo2":-89.0444,"dy":0.0017,"dx":0.0017,"nx":28,"ny":28,"refTime":"2025-03-16T03:00:00:Z","depth":0,"parameterNumber":3,"parameterNumberName":"V-component_of_WINDS"},"data":[0,0,0,0,0,0,0,0,0,0,0,0,0,0,0,0,0,0,0,0,0,0,0,0,0,0,0,0,0,0,0,0,0,0,0,0,0,0,0,0,0,0,0,0,0,0,0,0,0,0,0,0,0,0,0,0,0,0,9.6857,9.6858,0,9.6999,9.7,9.7002,9.6996,9.6994,9.6992,9.699,9.7135,9.714,9.7146,0,0,0,0,0,0,0,0,0,0,0,0,0,9.6585,9.659,9.6857,9.6859,9.686,9.6998,9.7,9.7002,9.6997,9.6994,9.6992,9.6989,9.7133,9.714,9.7146,0,0,0,0,0,0,0,0,0,0,0,0,0,9.6712,9.6592,9.6856,9.6874,9.6877,9.6998,9.7,9.7003,9.6997,9.6994,9.6991,9.6988,9.7131,9.7139,9.7147,9.726,0,0,9.7173,9.7177,0,0,0,0,0,0,0,0,9.6705,9.6722,9.687,9.6873,9.6877,9.6977,9.6957,9.7089,9.6998,9.6952,9.699,9.6987,9.7085,9.7097,9.713,9.7266,9.7273,9.7174,9.7179,9.7183,9.7185,0,0,0,0,0,0,0,9.6696,9.6716,9.6913,9.6872,9.6876,9.6876,9.6891,9.6982,9.7033,9.6955,9.6955,9.6972,9.7086,9.7122,9.7133,9.7275,9.7174,9.7182,9.7187,9.719,9.7518,9.7521,0,0,0,0,0,0,9.6683,9.6709,9.6908,9.6917,9.6782,9.6884,9.69,9.6948,9.7032,9.7042,9.6975,9.6971,9.7108,9.7123,9.7138,9.728,9.7183,9.7191,9.7196,9.7514,9.7518,9.7522,0,0,0,0,0,0,9.6678,9.6701,9.6903,9.6813,9.6839,9.6891,9.6945,9.6952,9.6988,9.7047,9.7056,9.7002,9.7107,9.7126,9.7231,9.7284,9.7195,9.7203,9.751,9.7515,9.752,9.7561,0,0,0,0,0,0,9.667,9.6699,9.6741,9.6814,9.6844,9.6992,9.6948,9.6957,9.7003,9.7,9.7074,9.7084,9.7106,9.7218,9.724,9.7295,9.7209,9.7505,9.7512,9.7519,9.7555,9.7567,9.7577,0,0,0,0,0,9.666,9.6745,9.6743,9.6767,9.6897,9.6995,9.7012,9.7036,9.7007,9.7051,9.709,9.7081,9.7275,9.7229,9.7253,9.7311,9.7502,9.751,9.7518,9.755,9.7564,9.7577,0,0,0,0,0,0,9.6675,9.6755,9.6753,9.6865,9.6924,9.6994,9.7049,9.705,9.7117,9.7112,9.7139,9.7156,9.7262,9.7297,9.7244,9.7428,9.7385,9.7398,9.7401,9.7415,9.7426,9.7416,9.7216,0,0,0,0,0,9.6692,9.6764,9.683,9.6922,9.6952,9.6996,9.7039,9.7053,9.7115,9.714,9.7186,9.7246,9.7322,9.737,9.7442,9.756,9.7578,9.7612,9.7623,9.7632,9.7643,9.7714,9.7731,9.7549,9.7549,9.7548,0,0,9.6726,9.6779,9.6822,9.6927,9.6974,9.705,9.7017,9.7097,9.7155,9.7152,9.7255,9.7291,9.7361,9.7475,9.7527,9.7507,9.7698,9.7642,9.7649,9.7656,9.7724,9.7741,9.7756,9.7554,9.7553,9.7552,0,0,9.6829,9.6874,9.6958,9.7007,9.708,9.711,9.713,9.7203,9.7227,9.7331,9.7333,9.7402,9.7529,9.7581,9.7623,9.7752,9.7749,9.7774,9.7832,9.7901,9.7915,9.7928,9.7978,9.7995,9.7785,9.7786,9.7786,0,9.6862,9.6976,9.7001,9.7084,9.7132,9.7135,9.7222,9.7269,9.7361,9.7395,9.7371,9.7536,9.7582,9.771,9.7743,9.7775,9.7802,9.7766,9.7911,9.7924,9.7937,9.7985,9.8003,9.7788,9.7788,9.7788,9.7787,0,9.7016,9.7096,9.7155,9.7247,9.7301,9.7386,9.7426,9.7478,9.7489,9.7522,9.7631,9.7688,9.7774,9.7805,9.7815,9.7937,9.7923,9.7905,9.7863,9.7957,9.8002,9.802,9.7793,9.7792,9.7791,9.779,0,0,9.7129,9.7238,9.7259,9.7303,9.7387,9.7449,9.7536,9.7622,9.7668,9.7733,9.7809,9.7919,9.7905,9.7954,9.797,9.803,9.8134,9.8006,9.8008,9.803,9.8277,9.8291,9.8312,9.8132,9.8136,9.8139,9.8272,0,9.7242,9.7396,9.7424,9.7559,9.7636,9.7643,9.7719,9.778,9.7814,9.7885,9.7923,9.8003,9.7976,9.8007,9.8066,9.8108,9.8184,9.8099,9.8205,9.8209,9.8189,9.8335,9.8349,9.8472,9.829,9.8293,9.8295,0,9.7394,9.7466,9.761,9.7688,9.7721,9.7789,9.7873,9.794,9.8011,9.8032,9.809,9.8101,9.8194,9.8148,9.8279,9.822,9.8266,9.8294,9.8299,9.8311,9.8258,9.8354,9.8512,9.8531,9.8322,9.832,9.8318,0,9.7467,9.7599,9.7704,9.7741,9.7833,9.7882,9.7923,9.7991,9.8043,9.8116,9.8151,9.8234,9.828,9.8345,9.8379,9.8341,9.8509,9.8464,9.8532,9.8531,9.8567,9.8565,9.8737,9.8593,9.8592,9.8592,9.8592,0,9.7592,9.768,9.7738,9.7803,9.7904,9.7936,9.8035,9.8076,9.8137,9.8211,9.8221,9.8291,9.8331,9.8407,9.8435,9.8542,9.8561,9.8583,9.859,9.8584,9.8581,9.8614,9.8608,9.8597,9.8596,9.8595,9.8594,0,9.7689,9.7732,9.7847,9.7927,9.795,9.8021,9.809,9.8155,9.8191,9.8285,9.8309,9.8366,9.8457,9.8498,9.8608,9.8627,9.8751,9.875,9.8727,9.873,9.8797,9.8791,9.8998,9.9029,9.8861,9.8863,9.8864,0,9.7767,9.7836,9.7925,9.7976,9.8019,9.8101,9.8155,9.8191,9.8247,9.8336,9.8391,9.8482,9.8558,9.8703,9.8755,9.8842,9.8845,9.8912,9.8858,9.8851,9.885,9.8846,9.8856,9.8922,9.8923,9.8925,9.8926,0,9.7902,9.7921,9.7998,9.8085,9.815,9.822,9.8288,9.8329,9.8377,9.844,9.8534,9.8593,9.8709,9.8802,9.8893,9.8936,9.8941,9.8943,9.8964,9.8959,9.8944,9.8957,9.8757,9.8938,9.8937,9.8936,9.8935,9.8935,9.7994,9.8058,9.8132,9.822,9.8276,9.8341,9.8407,9.8453,9.8532,9.8631,9.8647,9.8749,9.8823,9.8946,9.8994,9.9076,9.9059,9.9088,9.9096,9.9104,9.911,9.893,9.9092,9.9091,9.9091,9.9091,9.9091,0,9.8132,9.8182,9.8262,9.8359,9.843,9.8428,9.8506,9.8565,9.8654,9.8723,9.8799,9.891,9.9001,9.9062,9.9155,9.9208,9.9213,9.9232,9.9229,9.924,9.9117,9.9091,9.9227,9.9227,9.9227,9.9227,9.9227,9.9227,9.8213,9.8322,9.8351,9.849,9.8538,9.8639,9.8684,9.8745,9.8801,9.8925,9.9002,9.9041,9.9109,9.9208,9.9292,9.9308,9.9343,9.9363,9.9379,9.9262,9.9248,9.9235,9.9211,9.937,9.937,9.9496,9.9497,9.9498]}]]